Time,TemperatureF,DewpointF,PressureIn,WindDirection,WindDirectionDegrees,WindSpeedMPH,WindSpeedGustMPH,Humidity,HourlyPrecipIn,Conditions,Clouds,dailyrainin,SoftwareType,DateUTC
2013-07-02 00:00:00,68.3,67.7,30.14,SW,229,3.0,3.0,98,0.00,,,0.02,Wunderground v.1.15,2013-07-02 04:00:00,
2013-07-02 00:10:00,68.2,67.6,30.14,South,187,3.0,3.0,98,0.00,,,0.00,Wunderground v.1.15,2013-07-02 04:10:00,
2013-07-02 00:20:00,68.3,67.7,30.14,SSW,197,3.0,10.0,98,0.00,,,0.00,Wunderground v.1.15,2013-07-02 04:20:00,
2013-07-02 00:30:00,68.4,67.8,30.14,SSW,212,2.0,2.0,98,0.00,,,0.00,Wunderground v.1.15,2013-07-02 04:30:00,
2013-07-02 00:40:00,68.5,67.9,30.14,SSE,163,3.0,10.0,98,0.00,,,0.00,Wunderground v.1.15,2013-07-02 04:40:00,
2013-07-02 00:50:00,68.4,67.8,30.14,WNW,300,3.0,10.0,98,0.00,,,0.00,Wunderground v.1.15,2013-07-02 04:50:00,
2013-07-02 01:00:00,68.6,68.0,30.14,SW,229,3.0,3.0,98,0.00,,,0.00,Wunderground v.1.15,2013-07-02 05:00:00,
2013-07-02 01:10:00,68.7,68.1,30.14,SW,215,3.0,3.0,98,0.00,,,0.00,Wunderground v.1.15,2013-07-02 05:10:00,
2013-07-02 01:20:00,68.9,68.3,30.14,SW,235,2.0,2.0,98,0.00,,,0.00,Wunderground v.1.15,2013-07-02 05:20:00,
2013-07-02 01:30:00,68.9,68.3,30.14,SW,226,2.0,10.0,98,0.00,,,0.00,Wunderground v.1.15,2013-07-02 05:30:00,
2013-07-02 01:40:00,69.0,68.4,30.14,SW,235,2.0,10.0,98,0.00,,,0.00,Wunderground v.1.15,2013-07-02 05:40:00,
2013-07-02 01:50:00,69.1,68.5,30.14,WSW,238,3.0,3.0,98,0.00,,,0.00,Wunderground v.1.15,2013-07-02 05:50:00,
2013-07-02 02:00:00,69.1,68.5,30.14,WSW,239,3.0,10.0,98,0.00,,,0.00,Wunderground v.1.15,2013-07-02 06:00:00,
2013-07-02 02:10:00,69.3,68.7,30.14,SW,226,2.0,2.0,98,0.00,,,0.00,Wunderground v.1.15,2013-07-02 06:10:00,
2013-07-02 02:20:00,69.3,68.7,30.14,SW,229,2.0,10.0,98,0.00,,,0.00,Wunderground v.1.15,2013-07-02 06:20:00,
2013-07-02 02:30:00,69.3,68.7,30.14,SW,222,2.0,2.0,98,0.00,,,0.01,Wunderground v.1.15,2013-07-02 06:30:00,
2013-07-02 02:40:00,69.5,68.9,30.14,SSW,197,2.0,2.0,98,0.08,,,0.02,Wunderground v.1.15,2013-07-02 06:40:00,
2013-07-02 02:50:00,69.8,69.5,30.14,WNW,290,3.0,3.0,99,0.08,,,0.05,Wunderground v.1.15,2013-07-02 06:50:00,
2013-07-02 03:00:00,69.8,69.5,30.14,West,262,4.0,10.0,99,0.18,,,0.10,Wunderground v.1.15,2013-07-02 07:00:00,
2013-07-02 03:10:00,69.9,69.6,30.14,SW,225,3.0,3.0,99,0.07,,,0.11,Wunderground v.1.15,2013-07-02 07:10:00,
2013-07-02 03:20:00,69.9,69.6,30.14,SSW,207,4.0,4.0,99,0.00,,,0.11,Wunderground v.1.15,2013-07-02 07:20:00,
2013-07-02 03:30:00,69.6,69.3,30.14,SE,128,2.0,10.0,99,0.00,,,0.11,Wunderground v.1.15,2013-07-02 07:30:00,
2013-07-02 03:40:00,69.4,69.1,30.14,SSW,212,3.0,3.0,99,0.00,,,0.11,Wunderground v.1.15,2013-07-02 07:40:00,
2013-07-02 03:50:00,69.4,69.1,30.14,WSW,249,2.0,10.0,99,0.00,,,0.11,Wunderground v.1.15,2013-07-02 07:50:00,
2013-07-02 04:00:00,69.5,69.2,30.14,South,187,3.0,3.0,99,0.00,,,0.11,Wunderground v.1.15,2013-07-02 08:00:00,
2013-07-02 04:10:00,69.3,69.0,30.15,SW,221,3.0,3.0,99,0.00,,,0.11,Wunderground v.1.15,2013-07-02 08:10:00,
2013-07-02 04:20:00,69.3,69.0,30.15,WSW,240,2.0,10.0,99,0.00,,,0.11,Wunderground v.1.15,2013-07-02 08:20:00,
2013-07-02 04:30:00,69.4,69.1,30.15,SW,224,2.0,10.0,99,0.00,,,0.11,Wunderground v.1.15,2013-07-02 08:30:00,
2013-07-02 04:40:00,69.4,69.1,30.15,SW,232,2.0,2.0,99,0.00,,,0.11,Wunderground v.1.15,2013-07-02 08:40:00,
2013-07-02 04:50:00,69.5,69.2,30.15,WSW,256,2.0,10.0,99,0.00,,,0.12,Wunderground v.1.15,2013-07-02 08:50:00,
2013-07-02 05:00:00,69.7,69.4,30.16,SW,222,3.0,10.0,99,0.09,,,0.15,Wunderground v.1.15,2013-07-02 09:00:00,
2013-07-02 05:10:00,70.1,69.8,30.15,SW,224,3.0,3.0,99,0.15,,,0.19,Wunderground v.1.15,2013-07-02 09:10:00,
2013-07-02 05:20:00,70.3,70.0,30.16,West,259,3.0,3.0,99,0.12,,,0.21,Wunderground v.1.15,2013-07-02 09:20:00,
2013-07-02 05:30:00,70.8,70.5,30.16,West,264,3.0,3.0,99,0.07,,,0.22,Wunderground v.1.15,2013-07-02 09:30:00,
2013-07-02 05:40:00,70.2,69.9,30.17,WSW,240,2.0,2.0,99,0.00,,,0.22,Wunderground v.1.15,2013-07-02 09:40:00,
2013-07-02 05:50:00,70.0,69.7,30.17,SW,235,2.0,2.0,99,0.00,,,0.22,Wunderground v.1.15,2013-07-02 09:50:00,
2013-07-02 06:00:00,69.9,69.6,30.18,NNE,13,1.0,1.0,99,0.00,,,0.22,Wunderground v.1.15,2013-07-02 10:00:00,
2013-07-02 06:10:00,69.9,69.6,30.18,West,259,1.0,10.0,99,0.00,,,0.22,Wunderground v.1.15,2013-07-02 10:10:00,
2013-07-02 06:20:00,69.9,69.6,30.18,SW,232,2.0,10.0,99,0.00,,,0.22,Wunderground v.1.15,2013-07-02 10:20:00,
2013-07-02 06:30:00,69.8,69.5,30.18,South,181,2.0,2.0,99,0.00,,,0.22,Wunderground v.1.15,2013-07-02 10:30:00,
2013-07-02 06:40:00,70.0,69.7,30.19,West,266,1.0,10.0,99,0.00,,,0.22,Wunderground v.1.15,2013-07-02 10:40:00,
2013-07-02 06:50:00,70.0,69.7,30.19,West,263,2.0,2.0,99,0.00,,,0.22,Wunderground v.1.15,2013-07-02 10:50:00,
2013-07-02 07:00:00,70.0,69.7,30.19,ESE,105,1.0,1.0,99,0.00,,,0.22,Wunderground v.1.15,2013-07-02 11:00:00,
2013-07-02 07:10:00,70.0,69.7,30.20,SW,221,1.0,1.0,99,0.00,,,0.22,Wunderground v.1.15,2013-07-02 11:10:00,
2013-07-02 07:20:00,69.9,69.6,30.20,West,267,2.0,2.0,99,0.00,,,0.22,Wunderground v.1.15,2013-07-02 11:20:00,
2013-07-02 07:30:00,69.9,69.6,30.20,WNW,299,3.0,3.0,99,0.00,,,0.22,Wunderground v.1.15,2013-07-02 11:30:00,
2013-07-02 07:40:00,70.3,70.0,30.19,WSW,248,2.0,2.0,99,0.00,,,0.22,Wunderground v.1.15,2013-07-02 11:40:00,
2013-07-02 07:50:00,71.0,70.7,30.19,WSW,250,2.0,10.0,99,0.00,,,0.22,Wunderground v.1.15,2013-07-02 11:50:00,
2013-07-02 08:00:00,70.8,70.5,30.19,West,274,2.0,10.0,99,0.00,,,0.22,Wunderground v.1.15,2013-07-02 12:00:00,
2013-07-02 08:10:00,70.7,70.4,30.19,SW,221,2.0,10.0,99,0.00,,,0.22,Wunderground v.1.15,2013-07-02 12:10:00,
2013-07-02 08:20:00,70.8,70.5,30.19,WSW,242,2.0,10.0,99,0.00,,,0.22,Wunderground v.1.15,2013-07-02 12:20:00,
2013-07-02 08:30:00,70.9,70.6,30.19,SSW,200,2.0,2.0,99,0.00,,,0.22,Wunderground v.1.15,2013-07-02 12:30:00,
2013-07-02 08:40:00,71.0,70.7,30.19,WSW,253,2.0,10.0,99,0.00,,,0.22,Wunderground v.1.15,2013-07-02 12:40:00,
2013-07-02 08:50:00,70.6,70.0,30.19,WSW,253,2.0,2.0,98,0.00,,,0.22,Wunderground v.1.15,2013-07-02 12:50:00,
2013-07-02 09:00:00,70.3,69.7,30.19,SSW,212,2.0,10.0,98,0.00,,,0.22,Wunderground v.1.15,2013-07-02 13:00:00,
2013-07-02 09:10:00,70.2,69.9,30.19,SW,232,3.0,10.0,99,0.00,,,0.22,Wunderground v.1.15,2013-07-02 13:10:00,
2013-07-02 09:20:00,70.7,70.4,30.19,South,191,2.0,10.0,99,0.00,,,0.22,Wunderground v.1.15,2013-07-02 13:20:00,
2013-07-02 09:30:00,71.2,70.9,30.19,WSW,248,2.0,10.0,99,0.00,,,0.22,Wunderground v.1.15,2013-07-02 13:30:00,
2013-07-02 09:40:00,71.7,71.1,30.19,SW,219,3.0,10.0,98,0.00,,,0.22,Wunderground v.1.15,2013-07-02 13:40:00,
2013-07-02 09:50:00,71.8,71.2,30.19,WNW,284,3.0,10.0,98,0.00,,,0.22,Wunderground v.1.15,2013-07-02 13:50:00,
2013-07-02 10:00:00,72.0,71.4,30.19,SW,225,2.0,10.0,98,0.00,,,0.22,Wunderground v.1.15,2013-07-02 14:00:00,
2013-07-02 10:10:00,72.3,71.4,30.19,WNW,290,3.0,3.0,97,0.00,,,0.22,Wunderground v.1.15,2013-07-02 14:10:00,
2013-07-02 10:20:00,72.8,71.9,30.20,NNW,343,3.0,10.0,97,0.00,,,0.22,Wunderground v.1.15,2013-07-02 14:20:00,
2013-07-02 10:30:00,73.2,72.0,30.20,South,184,2.0,10.0,96,0.00,,,0.22,Wunderground v.1.15,2013-07-02 14:30:00,
2013-07-02 10:40:00,73.7,72.5,30.20,SSW,207,3.0,3.0,96,0.00,,,0.22,Wunderground v.1.15,2013-07-02 14:40:00,
2013-07-02 10:50:00,74.4,73.2,30.20,SSW,207,3.0,10.0,96,0.00,,,0.22,Wunderground v.1.15,2013-07-02 14:50:00,
2013-07-02 11:00:00,74.8,72.6,30.20,SW,232,4.0,4.0,93,0.00,,,0.22,Wunderground v.1.15,2013-07-02 15:00:00,
2013-07-02 11:10:00,75.1,72.9,30.20,West,267,4.0,4.0,93,0.00,,,0.22,Wunderground v.1.15,2013-07-02 15:10:00,
2013-07-02 11:20:00,75.2,72.7,30.20,South,170,3.0,10.0,92,0.00,,,0.22,Wunderground v.1.15,2013-07-02 15:20:00,
2013-07-02 11:30:00,75.1,72.6,30.20,SW,222,3.0,3.0,92,0.00,,,0.22,Wunderground v.1.15,2013-07-02 15:30:00,
2013-07-02 11:40:00,75.6,73.1,30.20,SSW,195,3.0,3.0,92,0.00,,,0.22,Wunderground v.1.15,2013-07-02 15:40:00,
2013-07-02 11:50:00,76.1,73.3,30.20,SW,219,3.0,10.0,91,0.00,,,0.22,Wunderground v.1.15,2013-07-02 15:50:00,
2013-07-02 12:00:00,75.5,72.4,30.20,SW,228,3.0,10.0,90,0.00,,,0.22,Wunderground v.1.15,2013-07-02 16:00:00,
2013-07-02 12:10:00,74.6,72.1,30.20,WSW,253,3.0,3.0,92,0.00,,,0.22,Wunderground v.1.15,2013-07-02 16:10:00,
2013-07-02 12:20:00,73.9,71.4,30.20,WSW,240,3.0,10.0,92,0.00,,,0.22,Wunderground v.1.15,2013-07-02 16:20:00,
2013-07-02 12:30:00,74.2,72.0,30.20,SSW,200,3.0,3.0,93,0.00,,,0.22,Wunderground v.1.15,2013-07-02 16:30:00,
2013-07-02 12:40:00,74.8,72.3,30.20,SW,221,4.0,4.0,92,0.00,,,0.22,Wunderground v.1.15,2013-07-02 16:40:00,
2013-07-02 12:50:00,74.9,72.4,30.20,SSE,167,3.0,3.0,92,0.00,,,0.22,Wunderground v.1.15,2013-07-02 16:50:00,
2013-07-02 13:00:00,75.2,72.4,30.20,SW,224,3.0,10.0,91,0.00,,,0.22,Wunderground v.1.15,2013-07-02 17:00:00,
2013-07-02 13:10:00,75.5,73.0,30.21,West,278,3.0,10.0,92,0.00,,,0.22,Wunderground v.1.15,2013-07-02 17:10:00,
2013-07-02 13:20:00,75.1,72.0,30.21,SSW,198,4.0,10.0,90,0.00,,,0.22,Wunderground v.1.15,2013-07-02 17:20:00,
2013-07-02 13:30:00,74.9,72.4,30.20,SSE,165,3.0,10.0,92,0.00,,,0.22,Wunderground v.1.15,2013-07-02 17:30:00,
2013-07-02 13:40:00,74.7,72.2,30.21,SSE,155,3.0,3.0,92,0.00,,,0.22,Wunderground v.1.15,2013-07-02 17:40:00,
2013-07-02 13:50:00,74.9,72.4,30.20,SSW,192,3.0,3.0,92,0.00,,,0.22,Wunderground v.1.15,2013-07-02 17:50:00,
2013-07-02 14:00:00,74.7,72.2,30.21,SW,215,3.0,3.0,92,0.00,,,0.22,Wunderground v.1.15,2013-07-02 18:00:00,
2013-07-02 14:10:00,74.2,72.0,30.20,SW,218,3.0,3.0,93,0.00,,,0.22,Wunderground v.1.15,2013-07-02 18:10:00,
2013-07-02 14:20:00,75.0,72.5,30.20,SSW,210,3.0,10.0,92,0.00,,,0.22,Wunderground v.1.15,2013-07-02 18:20:00,
2013-07-02 14:30:00,75.1,72.6,30.20,SW,222,3.0,10.0,92,0.00,,,0.22,Wunderground v.1.15,2013-07-02 18:30:00,
2013-07-02 14:40:00,75.6,72.8,30.20,West,259,3.0,3.0,91,0.00,,,0.22,Wunderground v.1.15,2013-07-02 18:40:00,
2013-07-02 14:50:00,75.3,72.5,30.20,SSE,153,2.0,10.0,91,0.00,,,0.22,Wunderground v.1.15,2013-07-02 18:50:00,
2013-07-02 15:00:00,74.8,72.3,30.20,WSW,249,2.0,10.0,92,0.00,,,0.22,Wunderground v.1.15,2013-07-02 19:00:00,
2013-07-02 15:10:00,74.1,71.9,30.19,West,263,3.0,3.0,93,0.00,,,0.22,Wunderground v.1.15,2013-07-02 19:10:00,
2013-07-02 15:20:00,74.8,72.6,30.19,South,190,3.0,3.0,93,0.00,,,0.22,Wunderground v.1.15,2013-07-02 19:20:00,
2013-07-02 15:30:00,75.1,72.6,30.18,NE,46,3.0,10.0,92,0.00,,,0.22,Wunderground v.1.15,2013-07-02 19:30:00,
2013-07-02 15:40:00,73.8,71.3,30.18,ENE,57,3.0,3.0,92,0.00,,,0.22,Wunderground v.1.15,2013-07-02 19:40:00,
2013-07-02 15:50:00,72.9,71.4,30.18,WNW,300,2.0,10.0,95,0.00,,,0.22,Wunderground v.1.15,2013-07-02 19:50:00,
2013-07-02 16:00:00,72.5,71.0,30.18,SW,219,3.0,10.0,95,0.00,,,0.22,Wunderground v.1.15,2013-07-02 20:00:00,
2013-07-02 16:10:00,72.0,70.8,30.18,SW,214,3.0,10.0,96,0.00,,,0.22,Wunderground v.1.15,2013-07-02 20:10:00,
2013-07-02 16:20:00,72.0,70.8,30.18,SW,225,3.0,10.0,96,0.00,,,0.22,Wunderground v.1.15,2013-07-02 20:20:00,
2013-07-02 16:30:00,71.9,70.7,30.18,West,262,3.0,10.0,96,0.00,,,0.22,Wunderground v.1.15,2013-07-02 20:30:00,
2013-07-02 16:40:00,71.9,70.7,30.18,SSW,210,3.0,3.0,96,0.00,,,0.22,Wunderground v.1.15,2013-07-02 20:40:00,
2013-07-02 16:50:00,71.8,70.9,30.17,West,272,3.0,10.0,97,0.00,,,0.22,Wunderground v.1.15,2013-07-02 20:50:00,
2013-07-02 17:00:00,72.1,70.9,30.18,SW,221,4.0,4.0,96,0.00,,,0.22,Wunderground v.1.15,2013-07-02 21:00:00,
2013-07-02 17:10:00,71.9,70.7,30.18,SW,221,3.0,3.0,96,0.00,,,0.22,Wunderground v.1.15,2013-07-02 21:10:00,
2013-07-02 17:20:00,71.6,70.4,30.18,SW,232,3.0,3.0,96,0.00,,,0.22,Wunderground v.1.15,2013-07-02 21:20:00,
2013-07-02 17:30:00,71.4,70.5,30.19,SSW,207,3.0,3.0,97,0.00,,,0.22,Wunderground v.1.15,2013-07-02 21:30:00,
2013-07-02 17:40:00,71.2,70.3,30.19,SW,215,2.0,10.0,97,0.00,,,0.22,Wunderground v.1.15,2013-07-02 21:40:00,
2013-07-02 17:50:00,71.2,70.3,30.19,WSW,249,3.0,10.0,97,0.00,,,0.22,Wunderground v.1.15,2013-07-02 21:50:00,
2013-07-02 18:00:00,71.3,70.4,30.19,SW,225,3.0,3.0,97,0.00,,,0.22,Wunderground v.1.15,2013-07-02 22:00:00,
2013-07-02 18:10:00,71.4,70.5,30.20,West,274,2.0,2.0,97,0.00,,,0.22,Wunderground v.1.15,2013-07-02 22:10:00,
2013-07-02 18:20:00,71.4,70.5,30.20,SSW,197,2.0,10.0,97,0.00,,,0.22,Wunderground v.1.15,2013-07-02 22:20:00,
2013-07-02 18:30:00,71.4,70.2,30.20,WSW,238,3.0,3.0,96,0.00,,,0.22,Wunderground v.1.15,2013-07-02 22:30:00,
2013-07-02 18:40:00,71.5,70.6,30.20,West,260,2.0,2.0,97,0.00,,,0.22,Wunderground v.1.15,2013-07-02 22:40:00,
2013-07-02 18:50:00,71.4,70.2,30.21,WSW,243,2.0,10.0,96,0.00,,,0.22,Wunderground v.1.15,2013-07-02 22:50:00,
2013-07-02 19:00:00,71.2,70.0,30.21,SW,218,2.0,10.0,96,0.00,,,0.22,Wunderground v.1.15,2013-07-02 23:00:00,
2013-07-02 19:10:00,70.9,70.0,30.21,West,276,2.0,10.0,97,0.00,,,0.22,Wunderground v.1.15,2013-07-02 23:10:00,
2013-07-02 19:20:00,70.9,70.0,30.21,SW,220,2.0,10.0,97,0.00,,,0.22,Wunderground v.1.15,2013-07-02 23:20:00,
2013-07-02 19:30:00,70.7,69.8,30.22,SW,224,2.0,2.0,97,0.00,,,0.22,Wunderground v.1.15,2013-07-02 23:30:00,
2013-07-02 19:40:00,70.6,69.7,30.22,SSE,155,2.0,10.0,97,0.00,,,0.22,Wunderground v.1.15,2013-07-02 23:40:00,
2013-07-02 19:50:00,70.5,69.6,30.22,WSW,253,2.0,10.0,97,0.00,,,0.22,Wunderground v.1.15,2013-07-02 23:50:00,
2013-07-02 20:00:00,70.4,69.8,30.22,WSW,250,2.0,10.0,98,0.00,,,0.22,Wunderground v.1.15,2013-07-03 00:00:00,
2013-07-02 20:10:00,70.4,69.8,30.22,WNW,290,3.0,3.0,98,0.00,,,0.22,Wunderground v.1.15,2013-07-03 00:10:00,
2013-07-02 20:20:00,70.4,69.8,30.22,SW,228,3.0,3.0,98,0.00,,,0.22,Wunderground v.1.15,2013-07-03 00:20:00,
2013-07-02 20:30:00,70.3,69.7,30.22,WSW,246,3.0,3.0,98,0.00,,,0.22,Wunderground v.1.15,2013-07-03 00:30:00,
2013-07-02 20:40:00,70.2,69.6,30.22,South,184,2.0,2.0,98,0.00,,,0.22,Wunderground v.1.15,2013-07-03 00:40:00,
2013-07-02 20:50:00,70.2,69.6,30.22,WSW,248,2.0,10.0,98,0.00,,,0.22,Wunderground v.1.15,2013-07-03 00:50:00,
2013-07-02 21:00:00,70.2,69.6,30.22,East,99,2.0,2.0,98,0.00,,,0.22,Wunderground v.1.15,2013-07-03 01:00:00,
2013-07-02 21:10:00,70.1,69.5,30.22,SSW,197,2.0,10.0,98,0.00,,,0.22,Wunderground v.1.15,2013-07-03 01:10:00,
2013-07-02 21:20:00,70.1,69.5,30.23,SW,221,2.0,2.0,98,0.00,,,0.22,Wunderground v.1.15,2013-07-03 01:20:00,
2013-07-02 21:30:00,70.0,69.4,30.23,East,96,2.0,2.0,98,0.00,,,0.22,Wunderground v.1.15,2013-07-03 01:30:00,
2013-07-02 21:40:00,70.1,69.5,30.23,ESE,112,2.0,10.0,98,0.00,,,0.22,Wunderground v.1.15,2013-07-03 01:40:00,
2013-07-02 21:50:00,70.2,69.6,30.24,SSW,198,2.0,2.0,98,0.00,,,0.22,Wunderground v.1.15,2013-07-03 01:50:00,
2013-07-02 22:00:00,70.1,69.5,30.24,WSW,256,2.0,2.0,98,0.00,,,0.22,Wunderground v.1.15,2013-07-03 02:00:00,
2013-07-02 22:10:00,70.1,69.5,30.24,SSW,207,2.0,10.0,98,0.00,,,0.22,Wunderground v.1.15,2013-07-03 02:10:00,
2013-07-02 22:30:00,70.2,69.6,30.23,WSW,241,2.0,10.0,98,0.00,,,0.22,Wunderground v.1.15,2013-07-03 02:30:00,
2013-07-02 22:50:00,70.0,69.4,30.23,West,276,2.0,10.0,98,0.00,,,0.22,Wunderground v.1.15,2013-07-03 02:50:00,
2013-07-02 23:00:00,69.9,69.3,30.22,West,262,2.0,2.0,98,0.00,,,0.22,Wunderground v.1.15,2013-07-03 03:00:00,
2013-07-02 23:10:00,69.9,69.3,30.22,WSW,253,2.0,10.0,98,0.00,,,0.22,Wunderground v.1.15,2013-07-03 03:10:00,
2013-07-02 23:30:00,69.9,69.3,30.22,WSW,238,3.0,3.0,98,0.00,,,0.22,Wunderground v.1.15,2013-07-03 03:30:00,
2013-07-02 23:50:00,70.1,69.5,30.21,WSW,237,3.0,3.0,98,0.00,,,0.22,Wunderground v.1.15,2013-07-03 03:50:00,